#timestamp,LO_Frequency,Hit 
1499353215.9,286046997.7,N
1499353235.7,286046997.9,N
1499353255.6,286046994.9,N
1499353275.4,286046997.9,N
1499353295.2,286046995.3,N
1499353315.1,286046994.9,N
1499353316.0,286046994.9,N
1499353335.8,286046995.2,N
1499353355.6,286046995.8,N
1499353375.5,286046995.8,N
1499353395.3,286046995.8,N
1499353415.1,286046996.4,N
1499353435.8,286046996.3,N
1499353455.7,286046995.7,N
1499353475.5,286046995.8,N
1499353495.3,286046995.9,N
1499353515.2,286046993.7,N
1499353535.9,286046993.6,N
1499353555.7,286046993.4,N
1499353575.6,286046993.6,N
1499353595.4,286046994.5,N
1499353615.2,286046992.2,N
1499353635.1,286046994.4,N
1499353636.0,286046994.4,N
1499353655.8,286046994.3,N
1499353675.6,286046992.4,N
1499353695.5,286046992.5,N
1499353715.3,286046991.9,N
1499353735.1,286046992.6,N
1499353755.8,286046992.1,N
1499353775.7,286046992.9,N
1499353795.5,286046992.6,N
1499353815.3,286046990.1,N
1499353835.2,286046990.4,N
1499353855.0,286046991.1,N
1499353855.9,286046991.1,N
1499353875.7,286046991.6,N
1499353895.6,286046990.6,N
1499353915.4,286046990.8,N
1499353935.2,286046990.6,N
1499353955.1,286046990.7,N
1499353956.0,286046990.7,N
1499353975.8,286046992.8,N
1499353995.6,286046990.8,N
1499354015.5,286046988.6,N
1499354035.3,286046989.1,N
1499354055.1,286046991.2,N
1499354075.9,286046989.1,N
1499354095.7,286046989.1,N
1499354115.5,286046987.1,N
1499354135.4,286046987.3,N
1499354155.2,286046987.4,N
1499354175.0,286046989.5,N
1499354175.9,286046989.5,N
1499354195.8,286046987.5,N
1499354215.6,286046987.0,N
1499354235.4,286046987.2,N
1499354255.2,286046985.5,N
1499354275.1,286046985.7,N
1499354276.0,286046985.7,N
1499354295.8,286046989.6,N
1499354315.6,286046987.4,N
1499354335.5,286046986.9,N
1499354355.3,286046987.3,N
1499354375.1,286046986.9,N
1499354395.9,286046987.3,N
1499354415.7,286046985.6,N
1499354435.5,286046985.5,N
1499354455.4,286046986.5,N
1499354475.2,286046986.2,N
1499354495.0,286046986.5,N
1499354495.9,286046986.5,N
1499354515.8,286046986.6,N
1499354535.6,286046983.9,N
1499354555.4,286046982.2,N
1499354575.3,286046985.1,N
1499354595.1,286046985.2,N
1499354596.0,286046985.2,N
1499354615.8,286046986.5,N
1499354635.6,286046986.4,N
1499354655.5,286046986.3,N
1499354675.3,286046986.3,N
1499354695.1,286046986.5,N
1499354715.9,286046986.2,N
1499354735.7,286046983.7,N
1499354755.5,286046983.9,N
1499354775.4,286046984.9,N
1499354795.2,286046982.6,N
1499354815.0,286046985.2,N
1499354815.9,286046985.2,N
1499354835.8,286046980.6,N
1499354855.6,286046981.4,N
1499354875.4,286046981.1,N
1499354895.3,286046982.1,N
1499354915.1,286046984.6,N
1499354916.0,286046984.6,N
1499354935.8,286046982.6,N
1499354955.7,286046982.1,N
1499354975.5,286046984.5,N
1499354995.3,286046984.5,N
1499355015.1,286046984.8,N
1499355035.9,286046982.4,N
1499355055.7,286046983.1,N
1499355075.5,286046979.3,N
1499355095.4,286046979.0,N
1499355115.2,286046979.4,N
1499355135.0,286046979.7,N
1499355135.9,286046979.7,N
1499355155.8,286046979.6,N
1499355175.6,286046979.8,N
1499355195.4,286046979.1,N
1499355215.3,286046979.7,N
1499355235.1,286046978.0,N
1499355236.0,286046978.0,N
1499355255.8,286046978.1,N
1499355275.7,286046977.5,N
1499355295.5,286046977.8,N
1499355315.3,286046975.7,N
1499355335.2,286046977.8,N
1499355355.9,286046978.4,N
1499355375.7,286046978.4,N
1499355395.6,286046977.3,N
1499355415.4,286046978.0,N
1499355435.2,286046978.0,N
1499355455.0,286046978.6,N
1499355455.9,286046978.6,N
1499355475.8,286046976.1,N
1499355495.6,286046976.1,N
1499355515.4,286046977.1,N
1499355535.3,286046974.5,N
1499355555.1,286046974.2,N
1499355575.8,286046976.6,N
1499355595.7,286046975.2,N
1499355615.5,286046975.6,N
1499355635.3,286046974.9,N
1499355655.2,286046976.8,N
1499355675.9,286046976.0,N
1499355695.7,286046977.2,N
1499355715.6,286046974.1,N
1499355735.4,286046976.4,N
1499355755.2,286046976.5,N
1499355775.0,286046975.0,N
1499355775.9,286046975.0,N
1499355795.8,286046974.9,N
1499355815.6,286046976.7,N
1499355835.4,286046978.3,N
1499355855.3,286046976.1,N
1499355875.1,286046976.3,N
1499355895.8,286046976.8,N
1499355915.7,286046976.8,N
1499355935.5,286046976.4,N
1499355955.3,286046976.9,N
1499355975.2,286046974.8,N
1499355995.9,286046974.2,N
1499356015.7,286046976.6,N
1499356035.6,286046974.3,N
1499356055.4,286046975.1,N
1499356075.2,286046975.2,N
1499356095.0,286046975.5,N
1499356095.9,286046975.5,N
1499356115.8,286046972.5,N
1499356135.6,286046972.9,N
1499356155.4,286046975.6,N
1499356175.3,286046972.6,N
1499356195.1,286046972.5,N
1499356215.8,286046972.9,N
1499356235.7,286046972.9,N
1499356255.5,286046973.3,N
1499356275.3,286046975.5,N
1499356295.2,286046973.0,N
1499356315.9,286046972.6,N
1499356335.7,286046973.3,N
1499356355.6,286046972.8,N
1499356375.4,286046973.3,N
1499356395.2,286046973.1,N
1499356415.0,286046973.2,N
1499356416.0,286046973.2,N
1499356435.8,286046973.1,N
1499356455.6,286046973.5,N
1499356475.4,286046973.7,N
1499356495.3,286046973.1,N
1499356515.1,286046972.7,N
1499356535.8,286046973.1,N
1499356555.7,286046973.7,N
1499356575.5,286046972.8,N
1499356595.3,286046973.4,N
1499356615.2,286046973.6,N
1499356635.9,286046971.9,N
1499356655.7,286046973.3,N
1499356675.6,286046973.1,N
1499356695.4,286046971.1,N
1499356715.2,286046973.6,N
1499356735.1,286046973.8,N
1499356736.0,286046973.8,N
1499356755.8,286046971.5,N
1499356775.6,286046971.9,N
1499356795.4,286046969.4,N
